User: anonymous   Login
Location: Ottawa
(45.4170°N, 75.7000°W)
Time: 13:06:17
(UTC-04:00)
Language:

Aureole 3 Rocket - Orbit

View from above orbital plane
View from above orbital plane
View from above satellite
View from above satellite

Ground track
Ground track

The orbit data is extracted from the following two-line orbital elements,

1 12849U 81094B   18110.93327213 +.00000197 +00000-0 +17474-4 0  9991
2 12849 082.4894 290.5494 0901548 307.5210 044.7225 13.50334695783471
Epoch (UTC): 20 April 2018 22:23:54
Eccentricity: 0.0901548
inclination: 82.4894°
perigee height: 399 km
apogee height: 1742 km
right ascension of ascending node: 290.5494°
argument of perigee: 307.5210°
revolutions per day: 13.50334695
mean anomaly at epoch: 44.7225°
orbit number at epoch: 78347

The dashed part of the orbit path shows where the satellite is in the earth's shadow,  

DLR